Year,Month,Day,Hour,Minute,Value (Times are PST for temperature in C)
2011,04,29,00,00,5.30
2011,04,29,00,01,5.30
2011,04,29,00,02,5.20
2011,04,29,00,03,5.20
2011,04,29,00,04,5.20
2011,04,29,00,05,5.20
2011,04,29,00,06,5.20
2011,04,29,00,07,5.20
2011,04,29,00,08,5.20
2011,04,29,00,09,5.20
2011,04,29,00,10,5.20
2011,04,29,00,11,5.20
2011,04,29,00,12,5.20
2011,04,29,00,13,5.20
2011,04,29,00,14,5.20
2011,04,29,00,15,5.30
2011,04,29,00,16,5.30
2011,04,29,00,17,5.30
2011,04,29,00,18,5.30
2011,04,29,00,19,5.30
2011,04,29,00,20,5.30
2011,04,29,00,21,5.30
2011,04,29,00,22,5.30
2011,04,29,00,23,5.30
2011,04,29,00,24,5.30
2011,04,29,00,25,5.30
2011,04,29,00,26,5.30
2011,04,29,00,27,5.30
2011,04,29,00,28,5.30
2011,04,29,00,29,5.30
2011,04,29,00,30,5.20
2011,04,29,00,31,5.20
2011,04,29,00,32,5.20
2011,04,29,00,33,5.20
2011,04,29,00,34,5.20
2011,04,29,00,35,5.20
2011,04,29,00,36,5.20
2011,04,29,00,37,5.20
2011,04,29,00,38,5.20
2011,04,29,00,39,5.10
2011,04,29,00,40,5.10
2011,04,29,00,41,5.10
2011,04,29,00,42,5.10
2011,04,29,00,43,5.10
2011,04,29,00,44,5.00
2011,04,29,00,45,4.90
2011,04,29,00,46,4.90
2011,04,29,00,47,4.80
2011,04,29,00,48,4.80
2011,04,29,00,49,4.70
2011,04,29,00,50,4.60
2011,04,29,00,51,4.60
2011,04,29,00,52,4.60
2011,04,29,00,53,4.50
2011,04,29,00,54,4.50
2011,04,29,00,55,4.40
2011,04,29,00,56,4.40
2011,04,29,00,57,4.40
2011,04,29,00,58,4.30
2011,04,29,00,59,4.30
2011,04,29,01,00,4.30
2011,04,29,01,01,4.20
2011,04,29,01,02,4.20
2011,04,29,01,03,4.20
2011,04,29,01,04,4.20
2011,04,29,01,05,4.20
2011,04,29,01,06,4.20
2011,04,29,01,07,4.20
2011,04,29,01,08,4.20
2011,04,29,01,09,4.20
2011,04,29,01,10,4.20
2011,04,29,01,11,4.20
2011,04,29,01,12,4.10
2011,04,29,01,13,4.10
2011,04,29,01,14,4.10
2011,04,29,01,15,4.10
2011,04,29,01,16,4.10
2011,04,29,01,17,4.00
2011,04,29,01,18,4.00
2011,04,29,01,19,4.00
2011,04,29,01,20,3.90
2011,04,29,01,21,3.90
2011,04,29,01,22,3.90
2011,04,29,01,23,3.90
2011,04,29,01,24,3.90
2011,04,29,01,25,3.90
2011,04,29,01,26,3.90
2011,04,29,01,27,3.90
2011,04,29,01,28,3.90
2011,04,29,01,29,3.90
2011,04,29,04,29,3.50
2011,04,29,04,30,3.50
2011,04,29,04,31,3.50
2011,04,29,04,32,3.50
2011,04,29,04,33,3.50
2011,04,29,04,34,3.50
2011,04,29,04,35,3.50
2011,04,29,04,36,3.50
2011,04,29,04,37,3.40
2011,04,29,04,38,3.40
2011,04,29,04,39,3.40
2011,04,29,04,40,3.40
2011,04,29,04,41,3.50
2011,04,29,04,42,3.50
2011,04,29,04,43,3.50
2011,04,29,04,44,3.50
2011,04,29,04,45,3.50
2011,04,29,04,46,3.50
2011,04,29,04,47,3.50
2011,04,29,04,48,3.60
2011,04,29,04,49,3.60
2011,04,29,04,50,3.60
2011,04,29,04,51,3.60
2011,04,29,04,52,3.60
2011,04,29,04,53,3.60
2011,04,29,04,54,3.60
2011,04,29,04,55,3.60
2011,04,29,04,56,3.60
2011,04,29,04,57,3.60
2011,04,29,04,58,3.60
2011,04,29,04,59,3.60
2011,04,29,05,00,3.60
2011,04,29,05,01,3.60
2011,04,29,05,02,3.60
2011,04,29,05,03,3.60
2011,04,29,05,04,3.60
2011,04,29,05,05,3.60
2011,04,29,05,06,3.60
2011,04,29,05,07,3.60
2011,04,29,05,08,3.60
2011,04,29,05,09,3.60
2011,04,29,05,10,3.60
2011,04,29,05,11,3.70
2011,04,29,05,12,3.70
2011,04,29,05,13,3.70
2011,04,29,05,14,3.70
2011,04,29,05,15,3.70
2011,04,29,05,16,3.70
2011,04,29,05,17,3.70
2011,04,29,05,18,3.70
2011,04,29,05,19,3.70
2011,04,29,05,20,3.70
2011,04,29,05,21,3.70
2011,04,29,05,22,3.70
2011,04,29,05,23,3.70
2011,04,29,05,24,3.70
2011,04,29,05,25,3.70
2011,04,29,05,26,3.70
2011,04,29,05,27,3.80
2011,04,29,05,28,3.80
2011,04,29,05,29,3.80
2011,04,29,05,30,3.80
2011,04,29,05,31,3.80
2011,04,29,05,32,3.80
2011,04,29,05,33,3.80
2011,04,29,05,34,3.80
2011,04,29,05,35,3.80
2011,04,29,05,36,3.80
2011,04,29,05,37,3.80
2011,04,29,05,38,3.80
2011,04,29,05,39,3.80
2011,04,29,05,40,3.80
2011,04,29,05,41,3.80
2011,04,29,05,42,3.80
2011,04,29,05,43,3.80
2011,04,29,05,44,3.80
2011,04,29,05,45,3.80
2011,04,29,05,46,3.80
2011,04,29,05,47,3.80
2011,04,29,05,48,3.80
2011,04,29,05,49,3.80
2011,04,29,05,50,3.80
2011,04,29,05,51,3.80
2011,04,29,05,52,3.80
2011,04,29,05,53,3.80
2011,04,29,05,54,3.80
2011,04,29,05,55,3.80
2011,04,29,05,56,3.80
2011,04,29,05,57,3.80
2011,04,29,05,58,3.80
2011,04,29,05,59,3.70
2011,04,29,06,00,3.70
2011,04,29,06,01,3.70
2011,04,29,06,02,3.60
2011,04,29,06,03,3.60
2011,04,29,06,04,3.60
2011,04,29,06,05,3.60
2011,04,29,06,06,3.60
2011,04,29,06,07,3.60
2011,04,29,06,08,3.60
2011,04,29,06,09,3.50
2011,04,29,06,10,3.50
2011,04,29,06,11,3.50
2011,04,29,06,12,3.50
2011,04,29,06,13,3.50
2011,04,29,06,14,3.50
2011,04,29,06,15,3.50
2011,04,29,06,16,3.50
2011,04,29,06,17,3.50
2011,04,29,06,18,3.50
2011,04,29,06,19,3.40
2011,04,29,06,20,3.40
2011,04,29,06,21,3.40
2011,04,29,06,22,3.40
2011,04,29,06,23,3.40
2011,04,29,06,24,3.40
2011,04,29,06,25,3.40
2011,04,29,06,26,3.40
2011,04,29,06,27,3.30
2011,04,29,06,28,3.30
2011,04,29,06,29,3.30
2011,04,29,06,30,3.30
2011,04,29,06,31,3.30
2011,04,29,06,32,3.30
2011,04,29,06,33,3.30
2011,04,29,06,34,3.30
2011,04,29,06,35,3.30
2011,04,29,06,36,3.30
2011,04,29,06,37,3.30
2011,04,29,06,38,3.30
2011,04,29,06,39,3.30
2011,04,29,06,40,3.30
2011,04,29,06,41,3.30
2011,04,29,06,42,3.30
2011,04,29,06,43,3.30
2011,04,29,06,44,3.30
2011,04,29,06,45,3.40
2011,04,29,06,46,3.40
2011,04,29,06,47,3.50
2011,04,29,06,48,3.50
2011,04,29,06,49,3.60
2011,04,29,06,50,3.60
2011,04,29,06,51,3.60
2011,04,29,06,52,3.60
2011,04,29,06,53,3.60
2011,04,29,06,54,3.60
2011,04,29,06,55,3.70
2011,04,29,06,56,3.70
2011,04,29,06,57,3.70
2011,04,29,06,58,3.70
2011,04,29,06,59,3.70
2011,04,29,07,00,3.70
2011,04,29,07,01,3.70
2011,04,29,07,02,3.60
2011,04,29,07,03,3.60
2011,04,29,07,04,3.60
2011,04,29,07,05,3.60
2011,04,29,07,06,3.60
2011,04,29,07,07,3.60
2011,04,29,07,08,3.60
2011,04,29,07,09,3.60
2011,04,29,07,10,3.60
2011,04,29,07,11,3.70
2011,04,29,07,12,3.70
2011,04,29,07,13,3.70
2011,04,29,07,14,3.70
2011,04,29,07,15,3.70
2011,04,29,07,16,3.70
2011,04,29,07,17,3.70
2011,04,29,07,18,3.70
2011,04,29,07,19,3.70
2011,04,29,07,20,3.70
2011,04,29,07,21,3.70
2011,04,29,07,22,3.70
2011,04,29,07,23,3.70
2011,04,29,07,24,3.70
2011,04,29,07,25,3.70
2011,04,29,07,26,3.70
2011,04,29,07,27,3.70
2011,04,29,07,28,3.70
2011,04,29,07,29,3.70
2011,04,29,07,30,3.70
2011,04,29,07,31,3.70
2011,04,29,07,32,3.70
2011,04,29,07,33,3.70
2011,04,29,07,34,3.80
2011,04,29,07,35,3.80
2011,04,29,07,36,3.80
2011,04,29,07,37,3.80
2011,04,29,07,38,3.90
2011,04,29,07,39,4.00
2011,04,29,07,40,4.10
2011,04,29,07,41,4.20
2011,04,29,07,42,4.20
2011,04,29,07,43,4.20
2011,04,29,07,44,4.30
2011,04,29,07,45,4.40
2011,04,29,07,46,4.50
2011,04,29,07,47,4.60
2011,04,29,07,48,4.60
2011,04,29,07,49,4.70
2011,04,29,07,50,4.80
2011,04,29,07,51,4.80
2011,04,29,07,52,4.90
2011,04,29,07,53,5.00
2011,04,29,07,54,5.10
2011,04,29,07,55,5.20
2011,04,29,07,56,5.30
2011,04,29,07,57,5.30
2011,04,29,07,58,5.40
2011,04,29,07,59,5.50
2011,04,29,08,00,5.60
2011,04,29,08,01,5.70
2011,04,29,08,02,5.70
2011,04,29,08,03,5.80
2011,04,29,08,04,5.90
2011,04,29,08,05,5.90
2011,04,29,08,06,6.00
2011,04,29,08,07,6.10
2011,04,29,08,08,6.10
2011,04,29,08,09,6.20
2011,04,29,08,10,6.20
2011,04,29,08,11,6.30
2011,04,29,08,12,6.40
2011,04,29,08,13,6.40
2011,04,29,08,14,6.60
2011,04,29,08,15,6.60
2011,04,29,08,16,6.70
2011,04,29,08,17,6.70
2011,04,29,08,18,6.80
2011,04,29,08,19,6.80
2011,04,29,08,20,6.80
2011,04,29,08,21,6.80
2011,04,29,08,22,6.90
2011,04,29,08,23,7.00
2011,04,29,08,24,7.00
2011,04,29,08,25,7.00
2011,04,29,08,26,7.10
2011,04,29,08,27,7.10
2011,04,29,08,28,7.10
2011,04,29,08,29,7.10
2011,04,29,08,30,7.20
2011,04,29,08,31,7.30
2011,04,29,08,32,7.30
2011,04,29,08,33,7.30
2011,04,29,08,34,7.30
2011,04,29,08,35,7.40
2011,04,29,08,36,7.50
2011,04,29,08,37,7.50
2011,04,29,08,38,7.60
2011,04,29,08,39,7.60
2011,04,29,08,40,7.70
2011,04,29,08,41,7.70
2011,04,29,08,42,7.80
2011,04,29,08,43,7.80
2011,04,29,08,44,7.80
2011,04,29,08,45,7.80
2011,04,29,08,46,7.80
2011,04,29,08,47,7.90
2011,04,29,08,48,8.00
2011,04,29,08,49,8.10
2011,04,29,08,50,8.20
2011,04,29,08,51,8.30
2011,04,29,08,52,8.40
2011,04,29,08,53,8.50
2011,04,29,08,54,8.50
2011,04,29,08,55,8.50
2011,04,29,08,56,8.50
2011,04,29,08,57,8.50
2011,04,29,08,58,8.50
2011,04,29,08,59,8.50
2011,04,29,09,00,8.50
2011,04,29,09,01,8.50
2011,04,29,09,02,8.50
2011,04,29,09,03,8.50
2011,04,29,09,04,8.60
2011,04,29,09,05,8.60
2011,04,29,09,06,8.60
2011,04,29,09,07,8.50
2011,04,29,09,08,8.60
2011,04,29,09,09,8.60
2011,04,29,09,10,8.50
2011,04,29,09,11,8.50
2011,04,29,09,12,8.50
2011,04,29,09,13,8.60
2011,04,29,09,14,8.60
2011,04,29,09,15,8.60
2011,04,29,09,16,8.60
2011,04,29,09,17,8.60
2011,04,29,09,18,8.70
2011,04,29,09,19,8.70
2011,04,29,09,20,8.70
2011,04,29,09,21,8.70
2011,04,29,09,22,8.70
2011,04,29,09,23,8.70
2011,04,29,09,24,8.70
2011,04,29,09,25,8.60
2011,04,29,09,26,8.70
2011,04,29,09,27,8.70
2011,04,29,09,28,8.80
2011,04,29,09,29,8.90
2011,04,29,09,30,8.90
2011,04,29,09,31,9.00
2011,04,29,09,32,8.90
2011,04,29,09,33,8.90
2011,04,29,09,34,8.80
2011,04,29,09,35,8.80
2011,04,29,09,36,8.80
2011,04,29,09,37,8.70
2011,04,29,09,38,8.70
2011,04,29,09,39,8.80
2011,04,29,09,40,8.80
2011,04,29,09,41,8.80
2011,04,29,09,42,8.80
2011,04,29,09,43,8.80
2011,04,29,09,44,8.80
2011,04,29,09,45,8.80
2011,04,29,09,46,8.80
2011,04,29,09,47,8.90
2011,04,29,09,48,8.80
2011,04,29,09,49,8.80
2011,04,29,09,50,8.80
2011,04,29,09,51,8.80
2011,04,29,09,52,8.90
2011,04,29,09,53,8.90
2011,04,29,09,54,8.90
2011,04,29,09,55,8.90
2011,04,29,09,56,8.90
2011,04,29,09,57,8.90
2011,04,29,09,58,8.90
2011,04,29,09,59,9.00
2011,04,29,10,00,9.00
2011,04,29,10,01,9.00
2011,04,29,10,02,9.20
2011,04,29,10,03,9.20
2011,04,29,10,04,9.30
2011,04,29,10,05,9.40
2011,04,29,10,06,9.50
2011,04,29,10,07,9.50
2011,04,29,10,08,9.50
2011,04,29,10,09,9.50
2011,04,29,10,10,9.40
2011,04,29,10,11,9.40
2011,04,29,10,12,9.50
2011,04,29,10,13,9.50
2011,04,29,10,14,9.50
2011,04,29,10,15,9.50
2011,04,29,10,16,9.60
2011,04,29,10,17,9.50
2011,04,29,10,18,9.50
2011,04,29,10,19,9.50
2011,04,29,10,20,9.50
2011,04,29,10,21,9.50
2011,04,29,10,22,9.40
2011,04,29,10,23,9.40
2011,04,29,10,24,9.30
2011,04,29,10,25,9.40
2011,04,29,10,26,9.40
2011,04,29,10,27,9.40
2011,04,29,10,28,9.40
2011,04,29,10,29,9.40
2011,04,29,10,30,9.40
2011,04,29,10,31,9.50
2011,04,29,10,32,9.60
2011,04,29,10,33,9.60
2011,04,29,10,34,9.60
2011,04,29,10,35,9.60
2011,04,29,10,36,9.60
2011,04,29,10,37,9.70
2011,04,29,10,38,9.70
2011,04,29,10,39,9.70
2011,04,29,10,40,9.70
2011,04,29,10,41,9.70
2011,04,29,10,42,9.70
2011,04,29,10,43,9.70
2011,04,29,10,44,9.70
2011,04,29,10,45,9.80
2011,04,29,10,46,9.80
2011,04,29,10,47,9.80
2011,04,29,10,48,9.70
2011,04,29,10,49,9.70
2011,04,29,10,50,9.80
2011,04,29,10,51,9.80
2011,04,29,10,52,9.90
2011,04,29,10,53,9.90
2011,04,29,10,54,9.80
2011,04,29,10,55,9.80
2011,04,29,10,56,9.80
2011,04,29,10,57,9.90
2011,04,29,10,58,9.90
2011,04,29,10,59,9.90
2011,04,29,11,00,9.90
2011,04,29,11,01,9.90
2011,04,29,11,02,9.90
2011,04,29,11,03,9.90
2011,04,29,11,04,9.90
2011,04,29,11,05,9.90
2011,04,29,11,06,9.80
2011,04,29,11,07,9.80
2011,04,29,11,08,9.90
2011,04,29,11,09,9.90
2011,04,29,11,10,9.90
2011,04,29,11,11,9.90
2011,04,29,11,12,9.90
2011,04,29,11,13,9.90
2011,04,29,11,14,10.00
2011,04,29,11,15,10.10
2011,04,29,11,16,10.10
2011,04,29,11,17,10.00
2011,04,29,11,18,9.90
2011,04,29,11,19,9.90
2011,04,29,11,20,9.90
2011,04,29,11,21,9.80
2011,04,29,11,22,9.80
2011,04,29,11,23,9.80
2011,04,29,11,24,9.80
2011,04,29,11,25,9.80
2011,04,29,11,26,9.90
2011,04,29,11,27,10.00
2011,04,29,11,28,10.10
2011,04,29,11,29,10.20
2011,04,29,11,30,10.30
2011,04,29,11,31,10.30
2011,04,29,11,32,10.50
2011,04,29,11,33,10.60
2011,04,29,11,34,10.60
2011,04,29,11,35,10.70
2011,04,29,11,36,10.80
2011,04,29,11,37,10.80
2011,04,29,11,38,10.80
2011,04,29,11,39,10.70
2011,04,29,11,40,10.60
2011,04,29,11,41,10.50
2011,04,29,11,42,10.40
2011,04,29,11,43,10.30
2011,04,29,11,44,10.30
2011,04,29,11,45,10.30
2011,04,29,11,46,10.20
2011,04,29,11,47,10.20
2011,04,29,11,48,10.30
2011,04,29,11,49,10.40
2011,04,29,11,50,10.50
2011,04,29,11,51,10.70
2011,04,29,11,52,10.90
2011,04,29,11,53,11.10
2011,04,29,11,54,11.30
2011,04,29,11,55,11.40
2011,04,29,11,56,11.40
2011,04,29,11,57,11.40
2011,04,29,11,58,11.60
2011,04,29,11,59,11.70
2011,04,29,12,00,11.80
2011,04,29,12,01,11.70
2011,04,29,12,02,11.60
2011,04,29,12,03,11.40
2011,04,29,12,04,11.40
2011,04,29,12,05,11.40
2011,04,29,12,06,11.40
2011,04,29,12,07,11.40
2011,04,29,12,08,11.30
2011,04,29,12,09,11.20
2011,04,29,12,10,11.10
2011,04,29,12,11,11.10
2011,04,29,12,12,11.00
2011,04,29,12,13,11.00
2011,04,29,12,14,10.90
2011,04,29,12,15,10.90
2011,04,29,12,16,10.90
2011,04,29,12,17,10.90
2011,04,29,12,18,10.80
2011,04,29,12,19,10.80
2011,04,29,12,20,10.80
2011,04,29,12,21,10.80
2011,04,29,12,22,10.70
2011,04,29,12,23,10.60
2011,04,29,12,24,10.60
2011,04,29,12,25,10.60
2011,04,29,12,26,10.60
2011,04,29,12,27,10.50
2011,04,29,12,28,10.40
2011,04,29,12,29,10.50
2011,04,29,12,30,10.60
2011,04,29,12,31,10.70
2011,04,29,12,32,10.70
2011,04,29,12,33,10.80
2011,04,29,12,34,10.80
2011,04,29,12,35,10.90
2011,04,29,12,36,10.90
2011,04,29,12,37,10.90
2011,04,29,12,38,10.90
2011,04,29,12,39,10.90
2011,04,29,12,40,10.90
2011,04,29,12,41,10.90
2011,04,29,12,42,10.90
2011,04,29,12,43,10.90
2011,04,29,12,44,10.90
2011,04,29,12,45,10.80
2011,04,29,12,46,10.80
2011,04,29,12,47,10.80
2011,04,29,12,48,10.80
2011,04,29,12,49,10.80
2011,04,29,12,50,10.80
2011,04,29,12,51,10.80
2011,04,29,12,52,10.80
2011,04,29,12,53,10.80
2011,04,29,12,54,10.90
2011,04,29,12,55,10.90
2011,04,29,12,56,10.90
2011,04,29,12,57,10.90
2011,04,29,12,58,10.90
2011,04,29,12,59,10.90
2011,04,29,13,00,10.90
2011,04,29,13,01,10.90
2011,04,29,13,02,11.00
2011,04,29,13,03,11.10
2011,04,29,13,04,11.10
2011,04,29,13,05,11.10
2011,04,29,13,06,11.10
2011,04,29,13,07,11.10
2011,04,29,13,08,11.10
2011,04,29,13,09,11.10
2011,04,29,13,10,11.10
2011,04,29,13,11,11.10
2011,04,29,13,12,11.10
2011,04,29,13,13,11.10
2011,04,29,13,14,11.10
2011,04,29,13,15,11.20
2011,04,29,13,16,11.20
2011,04,29,13,17,11.20
2011,04,29,13,18,11.20
2011,04,29,13,19,11.20
2011,04,29,13,20,11.20
2011,04,29,13,21,11.10
2011,04,29,13,22,11.20
2011,04,29,13,23,11.20
2011,04,29,13,24,11.20
2011,04,29,13,25,11.20
2011,04,29,13,26,11.30
2011,04,29,13,27,11.40
2011,04,29,13,28,11.50
2011,04,29,13,29,11.60
2011,04,29,13,30,11.60
2011,04,29,13,31,11.60
2011,04,29,13,32,11.60
2011,04,29,13,33,11.70
2011,04,29,13,34,11.80
2011,04,29,13,35,11.80
2011,04,29,13,36,11.80
2011,04,29,13,37,11.80
2011,04,29,13,38,11.80
2011,04,29,13,39,11.90
2011,04,29,13,40,11.80
2011,04,29,13,41,11.80
2011,04,29,13,42,11.80
2011,04,29,13,43,11.90
2011,04,29,13,44,11.90
2011,04,29,13,45,11.90
2011,04,29,13,46,12.00
2011,04,29,13,47,11.90
2011,04,29,13,48,12.00
2011,04,29,13,49,12.00
2011,04,29,13,50,12.00
2011,04,29,13,51,12.10
2011,04,29,13,52,12.10
2011,04,29,13,53,12.10
2011,04,29,13,54,12.10
2011,04,29,13,55,12.10
2011,04,29,13,56,12.30
2011,04,29,13,57,12.30
2011,04,29,13,58,12.30
2011,04,29,13,59,12.30
2011,04,29,14,00,12.30
2011,04,29,14,01,12.40
2011,04,29,14,02,12.40
2011,04,29,14,03,12.40
2011,04,29,14,04,12.40
2011,04,29,14,05,12.40
2011,04,29,14,06,12.30
2011,04,29,14,07,12.30
2011,04,29,14,08,12.20
2011,04,29,14,09,12.20
2011,04,29,14,10,12.30
2011,04,29,14,11,12.40
2011,04,29,14,12,12.60
2011,04,29,14,13,12.60
2011,04,29,14,14,12.60
2011,04,29,14,15,12.60
2011,04,29,14,16,12.60
2011,04,29,14,17,12.50
2011,04,29,14,18,12.50
2011,04,29,14,19,12.50
2011,04,29,14,20,12.50
2011,04,29,14,21,12.40
2011,04,29,14,22,12.40
2011,04,29,14,23,12.40
2011,04,29,14,24,12.40
2011,04,29,14,25,12.30
2011,04,29,14,26,12.30
2011,04,29,14,27,12.20
2011,04,29,14,28,12.10
2011,04,29,14,29,12.10
2011,04,29,14,30,12.10
2011,04,29,14,31,12.10
2011,04,29,14,32,12.20
2011,04,29,14,33,12.30
2011,04,29,14,34,12.40
2011,04,29,14,35,12.40
2011,04,29,14,36,12.50
2011,04,29,14,37,12.50
2011,04,29,14,38,12.50
2011,04,29,14,39,12.60
2011,04,29,14,40,12.60
2011,04,29,14,41,12.60
2011,04,29,14,42,12.70
2011,04,29,14,43,12.80
2011,04,29,14,44,12.80
2011,04,29,14,45,12.90
2011,04,29,14,46,13.00
2011,04,29,14,47,13.20
2011,04,29,14,48,13.30
2011,04,29,14,49,13.20
2011,04,29,14,50,13.00
2011,04,29,14,51,12.90
2011,04,29,14,52,12.80
2011,04,29,14,53,12.80
2011,04,29,14,54,12.70
2011,04,29,14,55,12.70
2011,04,29,14,56,12.70
2011,04,29,14,57,12.70
2011,04,29,14,58,12.70
2011,04,29,14,59,12.60
2011,04,29,15,00,12.60
2011,04,29,15,01,12.60
2011,04,29,15,02,12.60
2011,04,29,15,03,12.70
2011,04,29,15,04,12.70
2011,04,29,15,05,12.80
2011,04,29,15,06,12.80
2011,04,29,15,07,12.90
2011,04,29,15,08,12.90
2011,04,29,15,09,12.90
2011,04,29,15,10,12.90
2011,04,29,15,11,12.80
2011,04,29,15,12,12.80
2011,04,29,15,13,12.80
2011,04,29,15,14,12.80
2011,04,29,15,15,12.70
2011,04,29,15,16,12.70
2011,04,29,15,17,12.70
2011,04,29,15,18,12.70
2011,04,29,15,19,12.80
2011,04,29,15,20,12.80
2011,04,29,15,21,12.80
2011,04,29,15,22,12.80
2011,04,29,15,23,12.80
2011,04,29,15,24,12.80
2011,04,29,15,25,12.70
2011,04,29,15,26,12.70
2011,04,29,15,27,12.70
2011,04,29,15,28,12.70
2011,04,29,15,29,12.80
2011,04,29,15,30,12.80
2011,04,29,15,31,12.80
2011,04,29,15,32,12.80
2011,04,29,15,33,12.80
2011,04,29,15,34,12.80
2011,04,29,15,35,12.80
2011,04,29,15,36,12.80
2011,04,29,15,37,12.80
2011,04,29,15,38,12.80
2011,04,29,15,39,12.80
2011,04,29,15,40,12.80
2011,04,29,15,41,12.80
2011,04,29,15,42,12.80
2011,04,29,15,43,12.80
2011,04,29,15,44,12.80
2011,04,29,15,45,12.80
2011,04,29,15,46,12.80
2011,04,29,15,47,12.80
2011,04,29,15,48,12.80
2011,04,29,15,49,12.90
2011,04,29,15,50,12.90
2011,04,29,15,51,12.90
2011,04,29,15,52,13.00
2011,04,29,15,53,13.00
2011,04,29,15,54,13.00
2011,04,29,15,55,13.00
2011,04,29,15,56,13.00
2011,04,29,15,57,13.00
2011,04,29,15,58,13.00
2011,04,29,15,59,13.00
2011,04,29,16,00,13.00
2011,04,29,16,01,13.00
2011,04,29,16,02,13.00
2011,04,29,16,03,13.00
2011,04,29,16,04,12.90
2011,04,29,16,05,12.90
2011,04,29,16,06,12.90
2011,04,29,16,07,12.90
2011,04,29,16,08,12.90
2011,04,29,16,09,12.90
2011,04,29,16,10,12.90
2011,04,29,16,11,12.90
2011,04,29,16,12,12.90
2011,04,29,16,13,12.90
2011,04,29,16,14,12.90
2011,04,29,16,15,12.90
2011,04,29,16,16,12.90
2011,04,29,16,17,12.90
2011,04,29,16,18,12.90
2011,04,29,16,19,12.90
2011,04,29,16,20,12.90
2011,04,29,16,21,13.00
2011,04,29,16,22,13.00
2011,04,29,16,23,12.90
2011,04,29,16,24,12.90
2011,04,29,16,25,12.90
2011,04,29,16,26,12.90
2011,04,29,16,27,13.00
2011,04,29,16,28,13.00
2011,04,29,16,29,13.00
2011,04,29,16,30,13.00
2011,04,29,16,31,13.00
2011,04,29,16,32,13.10
2011,04,29,16,33,13.10
2011,04,29,16,34,13.10
2011,04,29,16,35,13.20
2011,04,29,16,36,13.20
2011,04,29,16,37,13.30
2011,04,29,16,38,13.20
2011,04,29,16,39,13.20
2011,04,29,16,40,13.20
2011,04,29,16,41,13.20
2011,04,29,16,42,13.30
2011,04,29,16,43,13.30
2011,04,29,16,44,13.30
2011,04,29,16,45,13.40
2011,04,29,16,46,13.40
2011,04,29,16,47,13.50
2011,04,29,16,48,13.40
2011,04,29,16,49,13.50
2011,04,29,16,50,13.50
2011,04,29,16,51,13.50
2011,04,29,16,52,13.60
2011,04,29,16,53,13.70
2011,04,29,16,54,13.70
2011,04,29,16,55,13.70
2011,04,29,16,56,13.70
2011,04,29,16,57,13.70
2011,04,29,16,58,13.70
2011,04,29,16,59,13.70
2011,04,29,17,00,13.70
2011,04,29,17,01,13.70
2011,04,29,17,02,13.60
2011,04,29,17,03,13.60
2011,04,29,17,04,13.60
2011,04,29,17,05,13.60
2011,04,29,17,06,13.60
2011,04,29,17,07,13.60
2011,04,29,17,08,13.60
2011,04,29,17,09,13.70
2011,04,29,17,10,13.80
2011,04,29,17,11,13.90
2011,04,29,17,12,13.90
2011,04,29,17,13,13.90
2011,04,29,17,14,13.90
2011,04,29,17,15,13.90
2011,04,29,17,16,13.90
2011,04,29,17,17,13.90
2011,04,29,17,18,13.80
2011,04,29,17,19,13.70
2011,04,29,17,20,13.60
2011,04,29,17,21,13.60
2011,04,29,17,22,13.60
2011,04,29,17,23,13.60
2011,04,29,17,24,13.60
2011,04,29,17,25,13.70
2011,04,29,17,26,13.70
2011,04,29,17,27,13.70
2011,04,29,17,28,13.60
2011,04,29,17,29,13.50
2011,04,29,17,30,13.50
2011,04,29,17,31,13.40
2011,04,29,17,32,13.40
2011,04,29,17,33,13.30
2011,04,29,17,34,13.40
2011,04,29,17,35,13.40
2011,04,29,17,36,13.50
2011,04,29,17,37,13.40
2011,04,29,17,38,13.40
2011,04,29,17,39,13.30
2011,04,29,17,40,13.30
2011,04,29,17,41,13.20
2011,04,29,17,42,13.10
2011,04,29,17,43,13.10
2011,04,29,17,44,13.00
2011,04,29,17,45,13.00
2011,04,29,17,46,12.90
2011,04,29,17,47,12.90
2011,04,29,17,48,12.90
2011,04,29,17,49,13.00
2011,04,29,17,50,13.00
2011,04,29,17,51,13.10
2011,04,29,17,52,13.10
2011,04,29,17,53,13.10
2011,04,29,17,54,13.10
2011,04,29,17,55,13.00
2011,04,29,17,56,12.90
2011,04,29,17,57,12.80
2011,04,29,17,58,12.80
2011,04,29,17,59,12.70
2011,04,29,18,00,12.80
2011,04,29,18,01,12.80
2011,04,29,18,02,12.80
2011,04,29,18,03,12.70
2011,04,29,18,04,12.70
2011,04,29,18,05,12.60
2011,04,29,18,06,12.50
2011,04,29,18,07,12.50
2011,04,29,18,08,12.50
2011,04,29,18,09,12.50
2011,04,29,18,10,12.50
2011,04,29,18,11,12.50
2011,04,29,18,12,12.50
2011,04,29,18,13,12.50
2011,04,29,18,14,12.60
2011,04,29,18,15,12.70
2011,04,29,18,16,12.70
2011,04,29,18,17,12.60
2011,04,29,18,18,12.60
2011,04,29,18,19,12.50
2011,04,29,18,20,12.40
2011,04,29,18,21,12.40
2011,04,29,18,22,12.40
2011,04,29,18,23,12.40
2011,04,29,18,24,12.30
2011,04,29,18,25,12.30
2011,04,29,18,26,12.40
2011,04,29,18,27,12.40
2011,04,29,18,28,12.50
2011,04,29,18,29,12.50
2011,04,29,18,30,12.40
2011,04,29,18,31,12.30
2011,04,29,18,32,12.30
2011,04,29,18,33,12.30
2011,04,29,18,34,12.30
2011,04,29,18,35,12.30
2011,04,29,18,36,12.20
2011,04,29,18,37,12.10
2011,04,29,18,38,12.00
2011,04,29,18,39,12.00
2011,04,29,18,40,11.90
2011,04,29,18,41,11.90
2011,04,29,18,42,11.80
2011,04,29,18,43,11.80
2011,04,29,18,44,11.80
2011,04,29,18,45,11.80
2011,04,29,18,46,11.80
2011,04,29,18,47,11.80
2011,04,29,18,48,11.80
2011,04,29,18,49,11.70
2011,04,29,18,50,11.70
2011,04,29,18,51,11.60
2011,04,29,18,52,11.60
2011,04,29,18,53,11.60
2011,04,29,18,54,11.60
2011,04,29,18,55,11.60
2011,04,29,18,56,11.60
2011,04,29,18,57,11.50
2011,04,29,18,58,11.50
2011,04,29,18,59,11.60
2011,04,29,19,00,11.50
2011,04,29,19,01,11.40
2011,04,29,19,02,11.40
2011,04,29,19,03,11.40
2011,04,29,19,04,11.30
2011,04,29,19,05,11.30
2011,04,29,19,06,11.30
2011,04,29,19,07,11.30
2011,04,29,19,08,11.20
2011,04,29,19,09,11.20
2011,04,29,19,10,11.20
2011,04,29,19,11,11.20
2011,04,29,19,12,11.20
2011,04,29,19,13,11.30
2011,04,29,19,14,11.30
2011,04,29,19,15,11.30
2011,04,29,19,16,11.40
2011,04,29,19,17,11.40
2011,04,29,19,18,11.40
2011,04,29,19,19,11.40
2011,04,29,19,20,11.40
2011,04,29,19,21,11.40
2011,04,29,19,22,11.40
2011,04,29,19,23,11.40
2011,04,29,19,24,11.40
2011,04,29,19,25,11.40
2011,04,29,19,26,11.40
2011,04,29,19,27,11.40
2011,04,29,19,28,11.40
2011,04,29,19,29,11.30
2011,04,29,19,30,11.30
2011,04,29,19,31,11.30
2011,04,29,19,32,11.30
2011,04,29,19,33,11.30
2011,04,29,19,34,11.30
2011,04,29,19,35,11.30
2011,04,29,19,36,11.30
2011,04,29,19,37,11.30
2011,04,29,19,38,11.20
2011,04,29,19,39,11.20
2011,04,29,19,40,11.10
2011,04,29,19,41,11.10
2011,04,29,19,42,10.90
2011,04,29,19,43,10.90
2011,04,29,19,44,10.90
2011,04,29,19,45,10.80
2011,04,29,19,46,10.70
2011,04,29,19,47,10.70
2011,04,29,19,48,10.60
2011,04,29,19,49,10.60
2011,04,29,19,50,10.60
2011,04,29,19,51,10.60
2011,04,29,19,52,10.60
2011,04,29,19,53,10.60
2011,04,29,19,54,10.50
2011,04,29,19,55,10.40
2011,04,29,19,56,10.40
2011,04,29,19,57,10.40
2011,04,29,19,58,10.40
2011,04,29,19,59,10.40
2011,04,29,20,00,10.40
2011,04,29,20,01,10.40
2011,04,29,20,02,10.30
2011,04,29,20,03,10.30
2011,04,29,20,04,10.30
2011,04,29,20,05,10.20
2011,04,29,20,06,10.20
2011,04,29,20,07,10.20
2011,04,29,20,08,10.20
2011,04,29,20,09,10.10
2011,04,29,20,10,10.10
2011,04,29,20,11,10.10
2011,04,29,20,12,10.10
2011,04,29,20,13,10.00
2011,04,29,20,14,9.90
2011,04,29,20,15,9.90
2011,04,29,20,16,9.90
2011,04,29,20,17,9.90
2011,04,29,20,18,9.90
2011,04,29,20,19,9.90
2011,04,29,20,20,9.90
2011,04,29,20,21,9.90
2011,04,29,20,22,9.80
2011,04,29,20,23,9.80
2011,04,29,20,24,9.70
2011,04,29,20,25,9.70
2011,04,29,20,26,9.70
2011,04,29,20,27,9.70
2011,04,29,20,28,9.70
2011,04,29,20,29,9.70
2011,04,29,20,30,9.60
2011,04,29,20,31,9.60
2011,04,29,20,32,9.60
2011,04,29,20,33,9.60
2011,04,29,20,34,9.50
2011,04,29,20,35,9.50
2011,04,29,20,36,9.40
2011,04,29,20,37,9.40
2011,04,29,20,38,9.40
2011,04,29,20,39,9.30
2011,04,29,20,40,9.30
2011,04,29,20,41,9.30